Weather History for KDTN - October, 2013

Change the Weather History Date:

Tuesday, October 1, 2013

  Actual Average (KSHV) Record (KSHV)
Temperature  
Mean Temperature 78 °F 71 °F  
Max Temperature 86 °F 83 °F 99 °F (1938)
Min Temperature 71 °F 60 °F 40 °F (1984)
Degree Days  
Heating Degree Days 0 1  
Month to date heating degree days 1  
Since 1 July heating degree days 7  
Cooling Degree Days 12 7  
Month to date cooling degree days 7  
Year to date cooling degree days 2332  
Growing Degree Days 28 (Base 50)    
Moisture  
Dew Point 71 °F    
Average Humidity 83    
Maximum Humidity 94    
Minimum Humidity 61    
Precipitation  
Precipitation 0.06 in 0.14 in 2.42 in (1961)
Month to date precipitation 0.14  
Year to date precipitation 37.29  
Snow  
Snow 0.00 in - - ()
Month to date snowfall  
Since 1 July snowfall  
Since 1 September snowfall  
Snow Depth -    
Sea Level Pressure  
Sea Level Pressure 29.95 in    
Wind  
Wind Speed 7 mph (SE)    
Max Wind Speed 14 mph    
Max Gust Speed 28 mph    
Visibility 10 miles    
Events Rain , Thunderstorm    
T = Trace of Precipitation, MM = Missing Value Source: NWS Daily Summary

Daily Weather History Graph

Daily Weather History Graph

Search for Another Location

Airport or City:

Trip Planner

Search our weather history database for the weather conditions in past years. The results will help you decide how hot, cold, wet, or windy it might be!

Date:

Astronomy

Oct. 01, 2013 Rise Set
Actual Time 7:09 AM CDT 6:59 PM CDT
Civil Twilight 6:44 AM CDT 7:23 PM CDT
Nautical Twilight 6:16 AM CDT 7:52 PM CDT
Astronomical Twilight 5:47 AM CDT 8:20 PM CDT
Moon 3:53 AM CDT (10/1) 4:55 PM CDT (10/1)
Length of Visible Light 12h 39m
Length of Day
11h 50m
Waning Crescent, 12% of the Moon is Illuminated
Oct 1
Waning Crescent
Oct 4
New
Oct 11
First Quarter
Oct 18
Full
Oct 26
Last Quarter

Hourly Weather History & Observations

Time (CDT) Temp. Heat Index Dew Point Humidity Pressure Visibility Wind Dir Wind Speed Gust Speed Precip Events Conditions
12:53 AM 72.0 °F - 69.1 °F 91% 29.89 in 10.0 mi SSE 5.8 mph - N/A   Clear
1:53 AM 72.0 °F - 69.1 °F 91% 29.89 in 10.0 mi SE 5.8 mph - N/A   Clear
2:08 AM 71.6 °F - 69.8 °F 94% 29.90 in 10.0 mi SSE 4.6 mph - N/A   Scattered Clouds
2:19 AM 71.6 °F - 69.8 °F 94% 29.90 in 10.0 mi SE 5.8 mph - N/A   Mostly Cloudy
2:53 AM 72.0 °F - 70.0 °F 93% 29.90 in 10.0 mi SSE 9.2 mph - N/A   Overcast
3:53 AM 72.0 °F - 70.0 °F 93% 29.91 in 10.0 mi SSE 6.9 mph - N/A   Overcast
4:53 AM 73.0 °F - 70.0 °F 90% 29.92 in 10.0 mi SSE 5.8 mph - N/A   Overcast
5:53 AM 73.0 °F - 70.0 °F 90% 29.93 in 7.0 mi SSE 6.9 mph - N/A   Overcast
6:53 AM 73.0 °F - 70.0 °F 90% 29.95 in 7.0 mi SSE 6.9 mph - N/A   Overcast
7:53 AM 73.9 °F - 71.1 °F 91% 29.96 in 7.0 mi SSE 9.2 mph - N/A   Overcast
8:53 AM 75.0 °F - 71.1 °F 87% 29.98 in 10.0 mi SSE 9.2 mph - N/A   Overcast
9:16 AM 75.2 °F - 71.6 °F 89% 29.99 in 10.0 mi SE 6.9 mph - N/A   Overcast
9:35 AM 75.2 °F - 71.6 °F 89% 29.99 in 8.0 mi SE 5.8 mph - N/A   Overcast
9:53 AM 75.0 °F - 71.1 °F 87% 29.99 in 9.0 mi SE 9.2 mph - N/A   Overcast
10:53 AM 78.1 °F - 72.0 °F 81% 29.99 in 9.0 mi SE 8.1 mph - N/A   Overcast
11:17 AM 78.8 °F - 71.6 °F 78% 29.99 in 10.0 mi SSE 9.2 mph - N/A   Overcast
11:53 AM 79.0 °F - 72.0 °F 79% 29.98 in 10.0 mi ESE 8.1 mph - N/A   Overcast
12:36 PM 82.4 °F 87.2 °F 71.6 °F 70% 29.98 in 10.0 mi SE 11.5 mph - N/A   Mostly Cloudy
12:53 PM 82.9 °F 88.0 °F 72.0 °F 69% 29.96 in 10.0 mi South 6.9 mph - N/A   Partly Cloudy
1:53 PM 82.9 °F 88.0 °F 72.0 °F 69% 29.95 in 10.0 mi SSE 9.2 mph - N/A   Scattered Clouds
2:34 PM 82.4 °F 86.3 °F 69.8 °F 66% 29.94 in 10.0 mi SSE 8.1 mph - N/A Thunderstorm Overcast
2:53 PM 82.9 °F 87.0 °F 70.0 °F 65% 29.93 in 10.0 mi ESE 4.6 mph - N/A   Overcast
3:53 PM 84.9 °F 89.4 °F 70.0 °F 61% 29.92 in 10.0 mi SSE 5.8 mph - N/A   Scattered Clouds
4:53 PM 84.0 °F 88.4 °F 70.0 °F 63% 29.91 in 10.0 mi SSE 4.6 mph - N/A   Partly Cloudy
5:53 PM 84.0 °F 89.0 °F 71.1 °F 65% 29.91 in 10.0 mi East 5.8 mph - N/A   Mostly Cloudy
6:25 PM 82.4 °F 87.2 °F 71.6 °F 70% 29.92 in 10.0 mi East 3.5 mph - N/A Thunderstorm Partly Cloudy
6:53 PM 77.0 °F - 69.1 °F 76% 29.94 in 10.0 mi SSE 13.8 mph 27.6 mph N/A Thunderstorm Thunderstorm
7:01 PM 75.2 °F - 71.6 °F 89% 29.93 in 5.0 mi SSE 12.7 mph - 0.00 in Rain , Thunderstorm Light Thunderstorms and Rain
7:53 PM 72.0 °F - 69.1 °F 91% 29.96 in 10.0 mi East 4.6 mph - 0.05 in Rain , Thunderstorm Light Thunderstorms and Rain
8:16 PM 71.6 °F - 69.8 °F 94% 29.97 in 10.0 mi SE 4.6 mph - 0.01 in Rain Light Rain
8:53 PM 72.0 °F - 70.0 °F 93% 29.96 in 10.0 mi ESE 8.1 mph - 0.01 in   Partly Cloudy
9:53 PM 73.0 °F - 70.0 °F 90% 29.96 in 10.0 mi SE 3.5 mph - 0.00 in   Partly Cloudy
10:53 PM 72.0 °F - 70.0 °F 93% 29.99 in 10.0 mi ESE 6.9 mph - N/A   Clear
11:53 PM 72.0 °F - 70.0 °F 93% 29.98 in 10.0 mi SSE 4.6 mph - N/A   Clear